Flag for U.S.A. Weather past 2 weeks in Orlando, Florida, U.S.A.

Now
70 °F

Passing clouds.


Feels Like: 69 °F
Forecast: 69 / 79 °F
Wind: 13 mph from East

Location: Orlando Executive Airport


UV Index: 0 (Low)

Visibility: 10 mi


Pressure: 30.07 "Hg

Humidity: 84%

Dew point: 65 °F

Location of OrlandoLocation

Historic Weather in Orlando

°F

Orlando temperature yesterday

Maximum temperature yesterday: 76 °F (at 4:53 PM)
Minimum temperature yesterday: 63 °F (at 1:53 AM)
Average temperature yesterday: 70 °F

Past Weeks' High & Low Weather Summary

 TemperatureHumidityPressure
High89 °F (Apr 7, 3:53 PM)94% (Apr 15, 3:53 PM)30.31 "Hg (Apr 15, 3:53 PM)
Low52 °F (Apr 16, 6:53 AM)31% (Apr 14, 6:53 PM)29.73 "Hg (Apr 8, 3:01 PM)
Average72 °F68%30.05 "Hg
* Reported Apr 3 4:53 AM — Apr 18 3:53 AM, Orlando, Weather by CustomWeather, © 2014

Note: Actual official high and low records may vary slightly from our data, if they occured in-between our weather recording intervals... More about our weather records

Advertising

Historic Weather Conditions — Data for Previous 24 hours

 ConditionsComfort  
Time TempWeatherWind HumidityBarometerVisibility
3:53 AM
Apr 18
70 °FClear.12 mph84%30.10 "Hg10 mi
2:53 AM70 °FClear.8 mph84%30.12 "Hg10 mi
1:53 AM70 °FPassing clouds.7 mph84%30.16 "Hg10 mi
12:53 AM71 °FPassing clouds.15 mph81%30.16 "Hg10 mi
11:53 PM
Apr 17
70 °FMostly cloudy.8 mph84%30.18 "Hg10 mi
11:00 PM70 °FOvercast.8 mph81%30.18 "Hg10 mi
9:53 PM70 °FPassing clouds.10 mph79%30.18 "Hg10 mi
8:53 PM71 °FPassing clouds.10 mph73%30.19 "Hg10 mi
7:53 PM72 °FBroken clouds.13 mph71%30.18 "Hg10 mi
6:53 PM74 °FOvercast.14 mph64%30.16 "Hg10 mi
5:53 PM75 °FMostly cloudy.18 mph64%30.16 "Hg10 mi
4:53 PM76 °FScattered clouds.17 mph62%30.16 "Hg10 mi
3:53 PM74 °FOvercast.17 mph69%30.19 "Hg10 mi
3:01 PM74 °FMostly cloudy.22 mph67%30.20 "Hg10 mi
1:53 PM73 °FOvercast.23 mph69%30.23 "Hg10 mi
12:53 PM73 °FOvercast.16 mph74%30.24 "Hg10 mi
11:53 AM73 °FOvercast.20 mph74%30.24 "Hg10 mi
10:53 AM75 °FMostly cloudy.17 mph69%30.22 "Hg10 mi
9:53 AM72 °FMore clouds than sun.12 mph76%30.20 "Hg10 mi
8:53 AM70 °FOvercast.10 mph76%30.19 "Hg10 mi
7:53 AM66 °FPassing clouds.6 mph84%30.18 "Hg10 mi
6:53 AM64 °FPassing clouds.8 mph87%30.17 "Hg10 mi
5:53 AM63 °FPassing clouds.8 mph90%30.15 "Hg10 mi
Weather by CustomWeather, © 2014

See weather overview